DELTA 1 DEB, 26831

Orbit data source: Space-Track

DELTA 1 DEB, 26831 is space debris in SSO originally from a launch on Thu, 12 Jun 1975 UTC launched from the Air Force Western Test Range (AFWTR). Debris objects in space refer to the collection of defunct objects orbiting the Earth. Examples of debris include non-operational satellites, rocket bodies, and fragments generated from explosions, collisions, or faulty payload assembly.

Loading next visibility...
Identifier
26831, 1975-052KK
Orbit
SSO
Country
Flag of USUS
Related business
Manufacturer
Unknown
Mission
Spacecraft
Bus & Motor
Unknown
Mass
Unknown
Launch date (UTC)
1975-06-12 (51 years ago)
Launch vehicle
Unknown
Launch site
Air Force Western Test Range (AFWTR)
Object type
Payload
Rocket body
Debris
Shape & HBR
Unknown shape, 0.1 m
Radar Cross Section
Small (<0.1 m²)

Expand to show TLE details & history
Last TLE update: 2 days ago

TLE from 2 days ago
0 DELTA 1 DEB
1 26831U 75052KK  26171.04304576  .00002498  00000-0  25612-2 0  9996
2 26831  99.8731 257.5779 0054975   1.5053 124.6933 13.76732788654796
Epoch: 2026-06-20T01:01Z
TLE epoch observation values (Epoch: 2026-06-20T01:01:59.153Z)
Latitude
52.26139°
Longitude
166.74511°
Altitude
1,007.05 km
Speed
7.342 km/s
True Right ascension
06h 02m 01s
True Declination
52° 06' 02"
Sunlit
Object was in daylight at epoch
Visualization orbit readout
Latitude
Unknown
Longitude
Unknown
Altitude
Unknown
Speed
Unknown
Apparent Right ascension
Unknown
Apparent Declination
Unknown
Sunlit
N/A
Visualization observer readout
Local Sidereal Time
23:27:02
Azimuth
Unknown
Elevation
Unknown
Doppler factor
Unknown
Orbital elements
Apogee altitude
1,013.184 km
Perigee altitude
932.361 km
Semi-major axis
7,350.91 km
Eccentricity
0.0055
Inclination
99.8731°
RAAN
257.5779°
Arg. of periapsis
1.5053°
True anomaly
125.20924°
Mean anomaly
124.6933°
Eccentric anomaly
124.95147°
Mean motion
3.44375 °/min
Orbital period
104.54 mins
BSTAR
0.0025612
Loading maneuver chart data...
Computing Atmospheric mass density...
Loading historical data...
Loading historical data...
Loading historical data...
Loading historical data...
Loading historical data...
Loading historical data...
Loading historical data...

Documentation

Showing up to 5 results
|